This is the latest recevied weather packets stored in our database for station/object DM4XI-13. If no packets are shown the sender has not sent any weather packets the latest 10 day(s).
| Time | Temp. | Humidity | Pressure | Rain* | Wind** | Luminosity | Snow |
|---|---|---|---|---|---|---|---|
| 1777418971 | 8.89° C | 47% | 1018.7 hPa | 0 mm | 0.45 m/s, 40° | 0 W/m² | - |
| 1777418910 | 8.89° C | 47% | 1018.6 hPa | 0 mm | 0.45 m/s, 149° | 0 W/m² | - |
| 1777418849 | 8.89° C | 47% | 1018.7 hPa | 0 mm | 0.45 m/s, 286° | 0 W/m² | - |
| 1777418787 | 8.89° C | 47% | 1018.6 hPa | 0 mm | 1.34 m/s, 10° | 0 W/m² | - |
| 1777418727 | 8.89° C | 47% | 1018.8 hPa | 0 mm | 0.45 m/s, 354° | 0 W/m² | - |
| 1777418666 | 8.89° C | 47% | 1018.8 hPa | 0 mm | 0.89 m/s, 50° | 0 W/m² | - |
| 1777418605 | 8.89° C | 47% | 1018.7 hPa | 0 mm | 0.45 m/s, 244° | 0 W/m² | - |
| 1777418544 | 8.89° C | 47% | 1018.8 hPa | 0 mm | 0.89 m/s, 15° | 0 W/m² | - |
| 1777418483 | 8.89° C | 47% | 1018.7 hPa | 0 mm | 0.89 m/s, 336° | 0 W/m² | - |
| 1777418421 | 8.89° C | 47% | 1018.8 hPa | 0 mm | 0.89 m/s, 19° | 0 W/m² | - |
| 1777418361 | 8.89° C | 46% | 1018.7 hPa | 0 mm | 0.45 m/s, 50° | 0 W/m² | - |
| 1777418300 | 8.89° C | 47% | 1018.9 hPa | 0 mm | 0.45 m/s, 26° | 0 W/m² | - |
| 1777418239 | 8.89° C | 47% | 1018.7 hPa | 0 mm | 0.45 m/s, 19° | 0 W/m² | - |
| 1777418177 | 8.89° C | 47% | 1018.9 hPa | 0 mm | 0.89 m/s, 64° | 0 W/m² | - |
| 1777418116 | 8.89° C | 47% | 1018.5 hPa | 0 mm | 1.34 m/s, 42° | 0 W/m² | - |
| 1777418056 | 8.89° C | 47% | 1018.6 hPa | 0 mm | 1.79 m/s, 7° | 0 W/m² | - |
| 1777417995 | 8.89° C | 47% | 1018.7 hPa | 0 mm | 0.45 m/s, 2° | 0 W/m² | - |
| 1777417934 | 8.89° C | 47% | 1018.7 hPa | 0 mm | 0.89 m/s, 8° | 0 W/m² | - |
| 1777417873 | 8.89° C | 47% | 1018.8 hPa | 0 mm | 0.89 m/s, 3° | 0 W/m² | - |
| 1777417812 | 8.89° C | 47% | 1018.7 hPa | 0 mm | 0.45 m/s, 1° | 0 W/m² | - |
| 1777417751 | 8.89° C | 47% | 1018.7 hPa | 0 mm | 0.45 m/s, 78° | 0 W/m² | - |
| 1777417690 | 8.89° C | 47% | 1018.9 hPa | 0 mm | 0.45 m/s, 18° | 0 W/m² | - |
| 1777417628 | 8.89° C | 47% | 1018.8 hPa | 0 mm | 0.45 m/s, 27° | 0 W/m² | - |
| 1777417567 | 8.89° C | 47% | 1018.7 hPa | 0 mm | 0.45 m/s, 339° | 0 W/m² | - |
| 1777417507 | 8.89° C | 47% | 1018.8 hPa | 0 mm | 0.45 m/s, 20° | 0 W/m² | - |
* Rain latest hour (hover to see other rain measurements)
** Current wind speed in m/s (hover to see current wind gust speed)